Location: Audinghen
(50.8518°N, 1.6129°E)
Time: 16:36:00
(UTC+00:00)

SL-4 R/B - Pass Details

Date: 07 August 2020
Orbit: 428 x 665 km, 51.6° (Epoch: 18 September)

Event Time Altitude Azimuth Distance (km) Brightness Sun altitude
Exits shadow 03:33:40 - 279° (W) 2,190 4.7 -8.2°
Reaches altitude 10° 03:35:39 10° 262° (W) 1,531 3.8 -7.9°
Maximum altitude 03:37:59 17° 219° (SW) 1,152 3.1 -7.6°
Drops below altitude 10° 03:40:18 10° 176° (S) 1,521 4.0 -7.3°
Sets 03:42:53 0° 156° (SSE) 2,394 5.2 -7.0°
